Flag for United Kingdom Weather past 2 weeks in Colchester, England, United Kingdom

Now
54 °F

Overcast.


Feels Like: 48 °F
Forecast: 50 / 54 °F
Wind: 20 mph from Southwest

Location: Luton Airport

Current Time: Dec 22, 2014 at 3:11:40 AM

Latest Report: Dec 22, 2014 at 2:50 AM


Visibility: N/A

Pressure: 30.04 "Hg

Humidity: 88%

Dew point: 50 °F

Location of ColchesterLocation

Historic Weather in Colchester — Graph

°F

Colchester temperature yesterday

Maximum temperature yesterday: 54 °F (at 11:50 PM)
Minimum temperature yesterday: 37 °F (at 1:50 AM)
Average temperature yesterday: 46 °F

Past Weeks' High & Low Weather Summary

 TemperatureHumidityPressure
High55 °F (Dec 18, 11:50 AM)100% (Dec 7, 3:20 AM)30.42 "Hg (Dec 7, 3:20 AM)
Low30 °F (Dec 13, 10:50 PM)66% (Dec 10, 9:50 AM)29.21 "Hg (Dec 12, 4:50 AM)
Average43 °F87%29.91 "Hg
* Reported Dec 7 1:20 AM — Dec 22 1:50 AM, Colchester, Weather by CustomWeather, © 2014

Note: Actual official high and low records may vary slightly from our data, if they occured in-between our weather recording intervals... More about our weather records

Advertising

Colchester weather history for previous 24 hours

 ConditionsComfort  
Time TempWeatherWind HumidityBarometerVisibility
1:50 AM
Dec 22
54 °FOvercast.20 mph88%30.07 "HgN/A
1:20 AM54 °FOvercast.21 mph88%30.07 "HgN/A
12:50 AM54 °FPassing clouds.21 mph88%30.07 "HgN/A
12:20 AM54 °FOvercast.21 mph88%30.07 "HgN/A
11:50 PM
Dec 21
54 °FOvercast.24 mph88%30.09 "HgN/A
11:20 PM52 °FOvercast.20 mph88%30.09 "HgN/A
10:50 PM52 °FOvercast.22 mph88%30.12 "HgN/A
10:20 PM52 °FOvercast.23 mph88%30.09 "HgN/A
9:20 PM52 °FPassing clouds.23 mph88%30.12 "HgN/A
8:50 PM52 °FPassing clouds.23 mph88%30.12 "HgN/A
8:20 PM52 °FOvercast.22 mph88%30.12 "HgN/A
7:50 PM50 °FOvercast.18 mph94%30.12 "HgN/A
7:20 PM50 °FPassing clouds.20 mph88%30.15 "HgN/A
6:50 PM50 °FPassing clouds.21 mph88%30.15 "HgN/A
6:20 PM50 °FPassing clouds.20 mph88%30.15 "HgN/A
5:50 PM50 °FPassing clouds.22 mph88%30.15 "HgN/A
5:20 PM50 °FPassing clouds.23 mph88%30.15 "HgN/A
4:50 PM48 °FPassing clouds.23 mph87%30.15 "HgN/A
4:20 PM48 °FPassing clouds.23 mph87%30.18 "HgN/A
3:50 PM48 °FPassing clouds.24 mph87%30.18 "HgN/A
3:20 PM48 °FPartly sunny.28 mph87%30.18 "HgN/A
2:50 PM48 °FPartly sunny.25 mph87%30.21 "HgN/A
2:20 PM48 °FPartly sunny.23 mph87%30.21 "HgN/A
1:50 PM48 °FPartly sunny.21 mph87%30.21 "HgN/A
1:20 PM46 °FPartly sunny.20 mph87%30.24 "HgN/A
12:50 PM46 °FPartly sunny.17 mph87%30.24 "HgN/A
12:20 PM46 °FPartly sunny.18 mph87%30.24 "HgN/A
11:20 AM46 °FPartly sunny.21 mph87%30.27 "HgN/A
10:50 AM46 °FPartly sunny.17 mph87%30.30 "HgN/A
10:20 AM45 °FPartly sunny.18 mph93%30.30 "HgN/A
9:50 AM45 °FPartly sunny.18 mph93%30.30 "HgN/A
9:20 AM45 °FMostly cloudy.15 mph93%30.30 "HgN/A
8:50 AM43 °FBroken clouds.14 mph100%30.30 "HgN/A
8:20 AM43 °FPartly sunny.12 mph100%30.30 "Hg5 mi
7:50 AM43 °FPassing clouds.9 mph93%30.33 "HgN/A
7:20 AM43 °FPassing clouds.9 mph93%30.33 "HgN/A
6:50 AM43 °FLow clouds.10 mph93%30.33 "HgN/A
6:20 AM43 °FLow clouds.10 mph93%30.33 "HgN/A
5:50 AM41 °FLow clouds.8 mph100%30.33 "HgN/A
5:20 AM41 °FLow clouds.9 mph100%30.33 "HgN/A
4:50 AM41 °FPassing clouds.9 mph100%30.36 "HgN/A
4:20 AM41 °FMostly cloudy.9 mph93%30.36 "HgN/A
3:50 AM41 °FOvercast.9 mph93%30.36 "Hg6 mi
3:20 AM41 °FPassing clouds.8 mph93%30.39 "HgN/A
Weather by CustomWeather, © 2014

See weather overviewHow to use our weather pages